UIIIUNKL

Guest
Details From UIII - Irkutsk
To UNKL - YEMELYANOVO
Flight Number -
Tags generated
Created
Modified
Stats Distance 482 nm / 893 km
Max Altitude 34,000 ft / 10,363 m
Waypoints 6
Social Downloads 1
Likes 0
Share VATSIM

Download

Looking for another format? Having issues loading an existing format? Contact us
Advertisement - Login to hide

Notes

Basic altitude profile: - Ascent Rate: 2500ft/min - Ascent Speed: 250kts - Cruise Altitude: 35000ft - Cruise Speed: 420kts - Descent Rate: 1500ft/min - Descent Speed: 250kts Options: - Use NATs: yes - Use PACOTS: yes - Use low airways: yes - Use high airways: yes

Route

UIII BD01 A310 RO UNKL

ID Type Via Altitude Latitude Longitude Leg Dist Tot Dist Heading (true) Name
O UIII APT - 0 ft / 0 m 52.26644˚ 104.39569˚ - 0 nm - Irkutsk
BD01 APT - 16,000 ft / 4,877 m 52.43333˚ 103.20000˚ 44 nm 44 nm 283° / 282° -
BUMER FIX A310 (AWY-LO) 34,000 ft / 10,363 m 54.34167˚ 97.94833˚ 220 nm 265 nm 303° / 299° -
LONKA FIX A310 (AWY-HI) 34,000 ft / 10,363 m 54.75056˚ 96.66639˚ 50 nm 316 nm 299° / 298° -
RO NDB A310 (AWY-HI) 28,300 ft / 8,626 m 55.26500˚ 94.87750˚ 68 nm 385 nm 297° / 296° AGINSKOYE NDB
O UNKL APT - 0 ft / 0 m 56.17295˚ 92.49328˚ 97 nm 482 nm 305° / 303° YEMELYANOVO

Altitude Profile

Advertisement - Login to hide

Weather


0- 5 10 15 20 25 30 35+ Temperature / ° C

Clouds and Precipitation
Forecast for 2018-05-22 18:00 UTC. Updated 3 hours ago

Ground ~20,000 ft ~40,000 ft Winds

UIII

Details ICAO UIII (IKT)
Name Irkutsk
Region Russia
Timezone Asia/Irkutsk (UTC+8.0)
Stats Elevation 1,675 ft / 511 m (AMSL)
Location 52.266437° 104.395694°
Runways 1
Magnetic Variation 3.787° W

METAR

UIII 222000Z 16003MPS 9999 SCT033CB 08/07 Q0997 R30/290150 NOSIG RMK QFE704/0939

Decode

TAF

TAF UIII 222000Z 2221/2321 17005MPS 9999 BKN020CB BECMG 2304/2306 29005MPS TEMPO 2306/2321 VRB15MPS -TSRA

Decode

Departure Runways

ID Width Length Bearing (true) Bearing (mag) Surface Threshold Offset Overrun Length
12 148 ft / 45 m 10,408 ft / 3,172 m 113.68° 117.47° Concrete 1,312 ft / 400 m 266 ft / 81 m
30 148 ft / 45 m 10,408 ft / 3,172 m 293.72° 297.51° Concrete 1,178 ft / 359 m 1,316 ft / 401 m

UNKL

Details ICAO UNKL (KJA)
Name YEMELYANOVO
Region Russia
Timezone Asia/Krasnoyarsk (UTC+7.0)
Stats Elevation 942 ft / 287 m (AMSL)
Location 56.172946° 92.493276°
Runways 1
Magnetic Variation 4.106° E

METAR

UNKL 222000Z 31001MPS 9999 SCT019CB 06/06 Q0998 R29/290055 NOSIG RMK QFE723

Decode

TAF

TAF UNKL 221942Z 2221/2321 VRB01MPS 5000 -SHRA BR BKN020CB TEMPO 2221/2224 3100 -SHRA BR FEW005 BKN015CB FM230000 30003G10MPS 9999 SCT020CB TEMPO 2300/2306 3500 -SHRA BKN015CB

Decode

Destination Runways

ID Width Length Bearing (true) Bearing (mag) Surface Threshold Offset Overrun Length
11 197 ft / 60 m 12,113 ft / 3,692 m 113.16° 109.05° Asphalt 0 ft / 0 m 235 ft / 72 m
29 197 ft / 60 m 12,113 ft / 3,692 m 293.21° 289.10° Asphalt 0 ft / 0 m 215 ft / 66 m

Popular Alternatives